Cambridge, United Kingdom

11:15 PM BST on October 21, 2017 (GMT +0100)
Cambridge

Weather History for EGSC - January, 2013

Change the Weather History Date:

Monday, January 21, 2013

  Actual Average Record
Temperature  
Mean Temperature 30 °F -  
Max Temperature 32 °F 44 °F 55 °F (2002)
Min Temperature 28 °F 35 °F 28 °F (2013)
Degree Days  
Heating Degree Days 35    
Moisture  
Dew Point 28 °F    
Average Humidity 93    
Maximum Humidity 100    
Minimum Humidity 86    
Precipitation  
Precipitation 0.00 in - - ()
Sea Level Pressure  
Sea Level Pressure 29.38 in    
Wind  
Wind Speed 3 mph ()    
Max Wind Speed 6 mph    
Max Gust Speed -    
Visibility 3.6 miles    
Events Snow    
Averages and records for this station are not official NWS values.
T = Trace of Precipitation, MM = Missing Value Source: Averaged Metar Reports

Daily Weather History Graph

Daily Weather History Graph

Search for Another Location

Airport or City:

Trip Planner

Search our weather history database for the weather conditions in past years. The results will help you decide how hot, cold, wet, or windy it might be!

Date:

Astronomy

Jan. 21, 2013 Rise Set
Actual Time 7:54 AM GMT 4:26 PM GMT
Civil Twilight 7:16 AM GMT 5:05 PM GMT
Nautical Twilight 6:34 AM GMT 5:47 PM GMT
Astronomical Twilight 5:54 AM GMT 6:27 PM GMT
Moon 11:54 AM GMT 3:09 AM GMT
Length of Visible Light 9h 48m
Length of Day
8h 31m
Waxing Gibbous, 73% of the Moon is Illuminated
Jan 21
Waxing Gibbous
Jan 27
Full
Feb 3
Last Quarter
Feb 10
New
Feb 17
First Quarter

Hourly Weather History & Observations

Time (GMT) Temp. Windchill Dew Point Humidity Pressure Visibility Wind Dir Wind Speed Gust Speed Precip Events Conditions
6:50 AM 28.4 °F - 26.6 °F 93% 29.27 in 4.3 mi Variable 2.3 mph - N/A Snow Light Snow
7:20 AM 28.4 °F 23.3 °F 28.4 °F 100% 29.30 in 3.7 mi SE 4.6 mph - N/A   Overcast
7:50 AM 28.4 °F 23.3 °F 28.4 °F 100% 29.30 in 2.5 mi SE 4.6 mph - N/A   Overcast
8:20 AM 28.4 °F 23.3 °F 28.4 °F 100% 29.30 in 2.2 mi SE 4.6 mph - N/A   Overcast
8:50 AM 30.2 °F 25.4 °F 28.4 °F 93% 29.30 in - SE 4.6 mph - N/A   Overcast
9:20 AM 30.2 °F - 28.4 °F 93% 29.33 in 2.5 mi SE 2.3 mph - N/A   Overcast
9:50 AM 30.2 °F - 28.4 °F 93% 29.33 in 2.5 mi SE 2.3 mph - N/A   Mostly Cloudy
10:20 AM 30.2 °F 26.7 °F 28.4 °F 93% 29.33 in 2.8 mi SE 3.5 mph - N/A   Mostly Cloudy
10:50 AM 30.2 °F - 28.4 °F 93% 29.36 in 2.8 mi Variable 2.3 mph - N/A   Mostly Cloudy
11:20 AM 30.2 °F - 28.4 °F 93% 29.36 in 2.8 mi SE 2.3 mph - N/A   Mostly Cloudy
11:50 AM 30.2 °F 25.4 °F 28.4 °F 93% 29.36 in 2.8 mi South 4.6 mph - N/A   Mostly Cloudy
12:20 PM 30.2 °F 25.4 °F 28.4 °F 93% 29.36 in 2.8 mi SSE 4.6 mph - N/A   Mostly Cloudy
12:50 PM 30.2 °F 25.4 °F 28.4 °F 93% 29.36 in 2.8 mi SE 4.6 mph - N/A   Mostly Cloudy
1:20 PM 32.0 °F 26.4 °F 28.4 °F 87% 29.36 in - SSE 5.8 mph - N/A   Mostly Cloudy
1:50 PM 32.0 °F 27.5 °F 28.4 °F 87% 29.36 in 3.7 mi SSE 4.6 mph - N/A   Mostly Cloudy
2:20 PM 30.2 °F 26.7 °F 28.4 °F 93% 29.39 in 3.7 mi SSE 3.5 mph - N/A   Mostly Cloudy
2:50 PM 32.0 °F 28.7 °F 28.4 °F 87% 29.39 in 3.7 mi SSE 3.5 mph - N/A   Mostly Cloudy
3:20 PM 30.2 °F 26.7 °F 28.4 °F 93% 29.39 in 4.3 mi SE 3.5 mph - N/A   Mostly Cloudy
3:50 PM 30.2 °F 25.4 °F 28.4 °F 93% 29.39 in 4.3 mi SE 4.6 mph - N/A   Mostly Cloudy
4:20 PM 30.2 °F 25.4 °F 28.4 °F 93% 29.39 in 4.3 mi SE 4.6 mph - N/A   Mostly Cloudy
4:50 PM 30.2 °F 26.7 °F 28.4 °F 93% 29.42 in 4.3 mi SSE 3.5 mph - N/A   Mostly Cloudy
5:20 PM 30.2 °F 26.7 °F 26.6 °F 86% 29.42 in 4.3 mi SE 3.5 mph - N/A   Mostly Cloudy
5:50 PM 30.2 °F 25.4 °F 28.4 °F 93% 29.44 in 4.3 mi SE 4.6 mph - N/A   Mostly Cloudy
6:20 PM 30.2 °F 25.4 °F 28.4 °F 93% 29.44 in 4.3 mi SE 4.6 mph - N/A   Mostly Cloudy
6:50 PM 30.2 °F 24.3 °F 28.4 °F 93% 29.44 in 4.3 mi SE 5.8 mph - N/A   Mostly Cloudy
7:20 PM 30.2 °F 26.7 °F 28.4 °F 93% 29.47 in 4.3 mi SE 3.5 mph - N/A   Mostly Cloudy
7:50 PM 30.2 °F 26.7 °F 28.4 °F 93% 29.47 in 4.3 mi SE 3.5 mph - N/A   Mostly Cloudy
8:20 PM 30.2 °F - 28.4 °F 93% 29.47 in 4.3 mi Variable 2.3 mph - N/A   Mostly Cloudy
8:50 PM 30.2 °F 25.4 °F 26.6 °F 86% 29.47 in 3.7 mi SE 4.6 mph - N/A   Mostly Cloudy